Tracking 26492 objects as of 8-Dec-2022
HD Live streaming from Space Station
objects crossing your sky now

STARLINK-4614

Track STARLINK-4614 now!
10-day predictions
STARLINK-4614 is classified as:


NORAD ID: 53741
Int'l Code: 2022-107AT
Perigee: 539.4 km
Apogee: 541.8 km
Inclination: 53.2 °
Period: 95.3 minutes
Semi major axis: 6911 km
RCS: Unknown
Launch date: September 5, 2022
Source: United States (US)
Launch site: AIR FORCE EASTERN TEST RANGE (AFETR)
aabbcc
Your satellite tracking list
Your tracking list is empty




NASA's NSSDC Master Catalog

Two Line Element Set (TLE):
1 53741U 22107AT  22342.00001157 -.00607871  00000-0 -38752-1 0  9996
2 53741  53.2172 180.6449 0001772  44.8229  85.2816 15.10892357  1305
Source of the keplerian elements: AFSPC